This is the latest recevied weather packets stored in our database for station/object KD4EED. If no packets are shown the sender has not sent any weather packets the latest 10 day(s).
| Time | Temp. | Humidity | Pressure | Rain* | Wind** | Luminosity | Snow |
|---|---|---|---|---|---|---|---|
| 1788650770 | 31.11° C | 42% | 1009.6 hPa | - | - | 401 W/m² | - |
| 1788650465 | 31.67° C | 41% | 1009.5 hPa | - | - | 281 W/m² | - |
| 1788650160 | 31.67° C | 42% | 1009.6 hPa | - | - | 296 W/m² | - |
| 1788649857 | 31.67° C | 42% | 1009.5 hPa | - | - | 426 W/m² | - |
| 1788649556 | 31.67° C | 43% | 1009.6 hPa | - | - | 396 W/m² | - |
| 1788649254 | 31.67° C | 42% | 1009.6 hPa | - | - | 394 W/m² | - |
| 1788648948 | 31.67° C | 43% | 1009.5 hPa | - | - | 388 W/m² | - |
| 1788648644 | 32.22° C | 40% | 1009.7 hPa | - | - | 393 W/m² | - |
| 1788648343 | 32.78° C | 40% | 1009.6 hPa | - | - | 399 W/m² | - |
| 1788648043 | 32.78° C | 40% | 1009.8 hPa | - | - | 408 W/m² | - |
| 1788647741 | 32.22° C | 40% | 1009.7 hPa | - | - | 419 W/m² | - |
| 1788647437 | 32.22° C | 42% | 1010 hPa | - | - | 444 W/m² | - |
| 1788647137 | 32.22° C | 40% | 1009.8 hPa | - | - | 391 W/m² | - |
| 1788646832 | 32.22° C | 41% | 1009.9 hPa | - | - | 455 W/m² | - |
| 1788646528 | 32.78° C | 39% | 1010.1 hPa | - | - | 401 W/m² | - |
| 1788646224 | 32.78° C | 39% | 1010.1 hPa | - | - | 481 W/m² | - |
| 1788645920 | 33.33° C | 37% | 1010 hPa | - | - | 490 W/m² | - |
| 1788645616 | 33.89° C | 36% | 1010.2 hPa | - | - | 505 W/m² | - |
| 1788645310 | 33.33° C | 38% | 1010.1 hPa | - | - | 519 W/m² | - |
| 1788645006 | 33.33° C | 36% | 1010.1 hPa | - | - | 527 W/m² | - |
| 1788644701 | 33.33° C | 36% | 1010.2 hPa | - | - | 536 W/m² | - |
| 1788644401 | 32.78° C | 37% | 1010.3 hPa | - | - | 545 W/m² | - |
| 1788644097 | 32.78° C | 34% | 1010.3 hPa | - | - | 552 W/m² | - |
| 1788643793 | 32.22° C | 36% | 1010.3 hPa | - | - | 561 W/m² | - |
| 1788643493 | 32.22° C | 37% | 1010.3 hPa | - | - | 570 W/m² | - |
* Rain since midnight (hover to see other rain measurements)
** Current wind speed in m/s (hover to see current wind gust speed)